Regional Weather Roundup
Issued by NWS Newport/Morehead, NC

Current Version | Previous Version | Text Only | Print | Product List | Glossary On
Versions: 1 2 3 4 5 6 7 8 9 10 11 12 13 14 15 16 17 18 19 20 21 22 23 24 25 26 27 28 29 30 31 32 33 34 35 36 37 38 39 40 41 42 43 44 45 46 47 48 49 50
439
ASUS42 KMHX 240414
RWRMHX
WEATHER ROUNDUP FOR EASTERN NORTH CAROLINA
NATIONAL WEATHER SERVICE NEWPORT/MOREHEAD CITY NC
1100 PM EST THU NOV 23 2017

NOTE: "FAIR" INDICATES FEW OR NO CLOUDS BELOW 12,000 FEET
WITH NO SIGNIFICANT WEATHER AND/OR OBSTRUCTIONS TO VISIBILITY

NCZ015>017-031-032-045>047-102-103-240500-
NORTH COAST

CITY           SKY/WX    TMP DP  RH WIND       PRES   REMARKS
EDENTON        PTCLDY    40  37  89 CALM      30.09S
ELIZABETH CITY PTCLDY    42  37  82 N5        30.09R
KITTY HAWK     MOCLDY    45  36  71 CALM      30.06S
MANTEO         CLOUDY    45  38  76 CALM      30.08R

$$

NCZ045>047-081-094-103-104-240500-
CENTRAL COAST

CITY           SKY/WX    TMP DP  RH WIND       PRES   REMARKS
FRISCO         CLOUDY    50  42  74 N8        30.05S

$$

NCZ095-097-098-100-101-240500-
SOUTHERN COAST

CITY           SKY/WX    TMP DP  RH WIND       PRES   REMARKS
BEAUFORT       CLOUDY    47  43  86 NE8       30.06R
CEDAR ISLAND   NOT AVBL
JACKSONVILLE   NOT AVBL
PINEY ISLAND   NOT AVBL
WILMINGTON     CLOUDY    46  41  82 NE8       30.05R


$$

NCZ011>013-027>030-043-044-078>080-089-090>093-098-240500-
COASTAL PLAIN

CITY           SKY/WX    TMP DP  RH WIND       PRES   REMARKS
AHOSKIE        PTCLDY    32  32 100 CALM      30.09S
CLINTON        CLOUDY    42  38  88 CALM      30.07R
ELIZABETHTOWN  NOT AVBL
GOLDSBORO      PTCLDY    41  35  80 CALM      30.06R
GREENVILLE     CLOUDY    36  36 100 CALM      30.09S
HAVELOCK       NOT AVBL
KENANSVILLE    CLOUDY    41  37  87 CALM      30.07S
KINSTON        CLOUDY    38  36  93 CALM      30.08S
NEW BERN       CLOUDY    44  40  85 NE5       30.07F
RICHLANDS      CLOUDY    43  39  86 NE6       30.06S
ROCKY MOUNT    CLOUDY    32  32 100 CALM      30.08F
WASHINGTON     CLOUDY    40  36  88 CALM      30.08S
WHITEVILLE     MOCLDY    44  38  79 NE3       30.03F

$$

AMZ130-135-150-152-154-156-158-170-250-252-270-ANZ085-086-088-633-658-670-240500-
MARINE OBSERVATIONS

STATION/POSITION TIME  TEMP    WIND        PRES    WAVE   SWELL
                       AIR SEA DIR/SP/G            HT/PER HT/PER
                 (UTC) (F)     (DEG/KT/KT) (MB)    (FT/S) (FT/S)
CHESAPEAKE LIGHT NOT AVBL
64 E VA BEACH    0350   47 59  350/  6/ 10 1018.7    5/ 9   5/ 9
DUCK             0348   47 58   40/  7/  8 1017.7
2 E DUCK         0400      60                N/A     4/10   2/11
OREGON INLET     0348           30/  6/  9   N/A
13E OREGON INLT  0348      63                N/A     5/ 9   5/ 9
HATTERAS CG      0348   50 58   20/ 14/ 15 1017.3
DIAMOND BUOY     0400   57 72   10/ 14/ 19 1017.1
CAPE LOOKOUT     0400           20/  9/ 12 1017.4
BEAUFORT LAB     0348   48 59   20/  8/ 10 1017.4
30 SE NEW RVR IN 0308   58 67   60/ 14/ 17 1017.0
30 SE NEW RVR IN 0400      67                N/A     5/ 9   2/11
27 SE WRIGHTSVLE 0308   59 72   70/ 14/ 21 1016.4
5 SE WRIGHTSVLE  0308   53 63   40/ 14/ 17 1016.7
225 S CAPE HAT   0350   71 77   70/ 19/ 25 1011.6    9/11   5/11
41 SE CHARLESTON 0400   66 75   40/ 21/ 25 1013.4

$$




USA.gov is the U.S. government's official web portal to all federal, state and local government web resources and services.